Regional Weather Roundup
Issued by NWS

Home | Current Version | Previous Version | Text Only | Print | Product List | Glossary On
Versions: 1 2 3 4 5 6 7 8 9 10 11 12 13 14 15 16 17 18 19 20 21 22 23 24 25 26 27 28 29 30 31 32 33 34 35 36 37 38 39 40 41 42 43 44 45 46 47 48 49 50
000
ASUS45 KABQ 161710
RWRNM
NEW MEXICO REGIONAL WEATHER ROUNDUP
NATIONAL WEATHER SERVICE ALBUQUERQUE NM
1000 AM MST TUE JAN 16 2018

NOTE: "FAIR" MEANS FEW OR NO CLOUDS BELOW 12,000 FEET AGL WITH NO
       SIGNIFICANT WEATHER OR OBSTRUCTIONS TO VISION.

      THIS PRODUCT IS RELEASED AS TWO VERSIONS.  ONE VERSION NEAR
      THE TOP OF THE HOUR CONTAINING PRELIMINARY DATA FROM ALBUQUERQUE
      AND OTHER STATIONS.  A FINAL VERSION WITH ADDITIONAL DATA IS
      ISSUED ABOUT 10 MINUTES AFTER THE HOUR.

NMZ501-503-504-510>518-161800-
NORTHWEST PLATEAU/NORTHCENTRAL MOUNTAINS

CITY           SKY/WX    TMP DP  RH WIND       PRES   REMARKS
FARMINGTON     FAIR      31  19  61 E10       30.42R WCI  22
LOS ALAMOS     CLOUDY    20  17  86 S3        30.46R
SANTA FE       CLOUDY    21  14  74 S8        30.49R WCI  11
TAOS           CLOUDY    21  15  78 NW5       30.48R WCI  15
ANGEL FIRE     FAIR      20  12  71 CALM      30.39S

$$
NMZ402-403-502-505>509-161800-
WESTCENTRAL MOUNTAINS/SOUTHWEST MOUNTAINS

CITY           SKY/WX    TMP DP  RH WIND       PRES   REMARKS
GALLUP         FAIR      32  21  64 NE13      30.38R WCI  22
GRANTS         CLOUDY    26  18  72 SE20      30.44R WCI  12
SILVER CITY    FAIR      28  13  53 S6        30.46R WCI  21

$$
NMZ407-409-411-412-161800-
SOUTHERN DESERTS

CITY           SKY/WX    TMP DP  RH WIND       PRES   REMARKS
DEMING         FAIR      32   8  36 E16       30.51R WCI  21
LAS CRUCES     FAIR      33   6  31 SE12      30.52R WCI  25
HOLLOMAN AFB   FAIR      35  10  35 N7        30.57R WCI  29
ALAMOGORDO     FAIR      32   7  34 N8        30.54R WCI  25
T OR C         FAIR      33  13  43 NE9       30.49R WCI  25

$$
NMZ519>523-161800-
CENTRAL VALLEYS/CENTRAL HIGHLANDS

CITY           SKY/WX    TMP DP  RH WIND       PRES   REMARKS
ALBUQUERQUE    CLOUDY    28  15  58 E9        30.51R WCI  19
DOUBLE EAGLE   CLOUDY    25  14  63 NE7       30.50R WCI  17
MORIARTY ARPT  FAIR      25  14  62 S6        30.52R WCI  18
CLINES CORNERS CLOUDY    19  14  81 S8        30.47R WCI   9
BELEN          CLOUDY    28  13  52 W6        30.52R WCI  22
SOCORRO        FAIR      29   9  42 N7        30.53S WCI  22

$$
NMZ524>526-539-540-161800-
SOUTHCENTRAL MOUNTAINS

CITY           SKY/WX    TMP DP  RH WIND       PRES   REMARKS
RUIDOSO        FAIR      19   1  45 SE10      30.49R WCI   8

$$
NMZ527>531-161800-
NORTHEAST HIGHLANDS/NORTHEAST PLAINS

CITY           SKY/WX    TMP DP  RH WIND       PRES   REMARKS
LAS VEGAS      CLOUDY    20  17  88 SW7       30.45R WCI  11
RATON          FAIR      20  12  71 N3        30.46S
CLAYTON        FAIR      19   6  57 E5        30.54R WCI  12

$$
NMZ532>537-161800-
EASTCENTRAL PLAINS

CITY           SKY/WX    TMP DP  RH WIND       PRES   REMARKS
SANTA ROSA     CLOUDY    26  12  55 S5        30.57R WCI  21
TUCUMCARI      CLOUDY    19  -1  41 E6        30.62R WCI  11
CANNON AFB     CLOUDY    19   0  43 E3        30.64R
CLOVIS AIRPORT CLOUDY    19   1  45 NE5       30.64R WCI  12

$$
NMZ028-029-538-161800-
SOUTHEAST PLAINS

CITY           SKY/WX    TMP DP  RH WIND       PRES   REMARKS
ROSWELL        FAIR      29   5  36 S9        30.65R WCI  20
ARTESIA        FAIR      27   5  39 SE12      30.68S WCI  16
CARLSBAD       FAIR      28   6  39 E7        30.69R WCI  21
HOBBS          MOSUNNY   23  -2  33 NE8       30.68R WCI  14


$$



USA.gov is the U.S. government's official web portal to all federal, state and local government web resources and services.